Simultaneous Nadir Overpasses (SNOs) Predictions

Prediction of SNOs between GOES-15 and METOP-A Satellite Orbit:

Table of predicted SNOs for the next 14.0 days since TLE Epoch: 8/24/2013
Index Date Time (GOES-15) GOES-15 Lat,Lon METOP-A Lat,Lon Distance(km) Time Diff (sec)
1 08/25/2013 06:44:00 0.27,-135.12 -0.56,-138.89 428.90 80
2 08/26/2013 06:26:01 0.25,-135.17 0.53,-133.89 146.24 80
3 08/27/2013 18:42:14 -0.28,-135.30 0.43,-138.46 360.86 80
4 08/28/2013 18:24:15 -0.26,-135.35 -0.67,-133.46 214.45 80
5 08/30/2013 06:40:36 0.29,-135.38 -0.29,-138.07 306.61 80
6 08/31/2013 06:22:37 0.26,-135.42 0.80,-133.07 267.81 80
7 09/01/2013 18:38:50 -0.29,-135.53 0.15,-137.65 240.80 80
8 09/02/2013 18:20:50 -0.28,-135.58 -0.95,-132.65 333.86 80
9 09/04/2013 06:37:11
